TimeCDT,TemperatureF,Dew PointF,Humidity,Sea Level PressureIn,VisibilityMPH,Wind Direction,Wind SpeedMPH,Gust SpeedMPH,PrecipitationIn,Events,Conditions,WindDirDegrees,DateUTC
12:43 AM,60.8,59.0,94,29.83,10.0,ESE,10.4,-,N/A,,Mostly Cloudy,110,2013-05-16 05:43:00
12:53 AM,61.0,59.0,93,29.78,10.0,ESE,10.4,-,N/A,,Overcast,120,2013-05-16 05:53:00
1:44 AM,60.8,59.0,94,29.82,10.0,ESE,6.9,-,N/A,,Overcast,120,2013-05-16 06:44:00
1:53 AM,60.1,59.0,96,29.78,10.0,ESE,4.6,-,N/A,,Mostly Cloudy,120,2013-05-16 06:53:00
2:08 AM,60.8,59.0,94,29.82,10.0,ESE,3.5,-,N/A,,Scattered Clouds,120,2013-05-16 07:08:00
2:53 AM,59.0,57.9,96,29.78,9.0,NE,3.5,-,N/A,,Mostly Cloudy,50,2013-05-16 07:53:00
3:53 AM,59.0,57.9,96,29.76,7.0,NNE,3.5,-,N/A,,Overcast,20,2013-05-16 08:53:00
4:17 AM,57.2,55.4,94,29.81,5.0,NNE,6.9,-,N/A,,Scattered Clouds,20,2013-05-16 09:17:00
4:53 AM,57.0,57.0,100,29.77,6.0,ENE,3.5,-,N/A,,Scattered Clouds,70,2013-05-16 09:53:00
5:03 AM,57.2,57.2,100,29.83,5.0,NE,5.8,-,N/A,,Mostly Cloudy,40,2013-05-16 10:03:00
5:53 AM,59.0,57.9,96,29.79,5.0,NE,5.8,-,N/A,,Overcast,50,2013-05-16 10:53:00
6:53 AM,59.0,57.9,96,29.80,4.0,ENE,8.1,-,N/A,,Overcast,70,2013-05-16 11:53:00
7:14 AM,59.0,57.2,94,29.85,2.5,East,5.8,-,N/A,,Overcast,80,2013-05-16 12:14:00
7:33 AM,59.0,57.2,94,29.86,1.5,East,4.6,-,N/A,,Overcast,80,2013-05-16 12:33:00
7:53 AM,59.0,57.9,96,29.83,1.2,Calm,Calm,-,N/A,,Overcast,0,2013-05-16 12:53:00
8:11 AM,59.0,57.2,94,29.87,3.0,NNE,5.8,-,N/A,,Overcast,30,2013-05-16 13:11:00
8:38 AM,60.8,57.2,88,29.87,4.0,North,6.9,-,N/A,,Overcast,360,2013-05-16 13:38:00
8:53 AM,61.0,59.0,93,29.83,5.0,North,5.8,-,N/A,,Overcast,10,2013-05-16 13:53:00
9:53 AM,64.0,59.0,84,29.83,7.0,NNW,6.9,-,N/A,,Overcast,330,2013-05-16 14:53:00
10:30 AM,64.4,60.8,88,29.88,10.0,NW,8.1,-,N/A,,Overcast,320,2013-05-16 15:30:00
10:53 AM,64.9,60.1,84,29.83,10.0,NNW,9.2,-,N/A,,Overcast,330,2013-05-16 15:53:00
11:28 AM,66.2,60.8,83,29.88,10.0,NNW,8.1,-,N/A,,Mostly Cloudy,340,2013-05-16 16:28:00
11:46 AM,69.8,59.0,68,29.88,10.0,North,5.8,-,N/A,,Mostly Cloudy,10,2013-05-16 16:46:00
11:53 AM,71.1,60.1,68,29.83,10.0,NNE,8.1,-,N/A,,Mostly Cloudy,30,2013-05-16 16:53:00
12:08 PM,73.4,60.8,65,29.88,10.0,NNE,6.9,-,N/A,,Scattered Clouds,30,2013-05-16 17:08:00
12:53 PM,75.0,59.0,57,29.81,10.0,ENE,8.1,-,N/A,,Partly Cloudy,60,2013-05-16 17:53:00
1:53 PM,75.0,60.1,60,29.81,10.0,ESE,6.9,-,N/A,,Scattered Clouds,110,2013-05-16 18:53:00
2:53 PM,79.0,60.1,52,29.80,10.0,East,10.4,-,N/A,,Partly Cloudy,80,2013-05-16 19:53:00
3:53 PM,79.0,59.0,50,29.78,10.0,ESE,6.9,-,N/A,,Clear,110,2013-05-16 20:53:00
4:53 PM,79.0,59.0,50,29.76,10.0,ENE,8.1,-,N/A,,Clear,70,2013-05-16 21:53:00
5:53 PM,78.1,60.1,54,29.75,10.0,ESE,8.1,-,N/A,,Clear,110,2013-05-16 22:53:00
6:53 PM,75.9,60.1,58,29.76,10.0,ESE,10.4,-,N/A,,Clear,120,2013-05-16 23:53:00
7:53 PM,72.0,60.1,66,29.77,10.0,ESE,15.0,-,N/A,,Clear,110,2013-05-17 00:53:00
9:53 PM,64.0,60.1,87,29.80,10.0,ESE,11.5,-,N/A,,Clear,120,2013-05-17 02:53:00
10:53 PM,64.0,60.1,87,29.81,10.0,SE,10.4,-,N/A,,Clear,130,2013-05-17 03:53:00
11:53 PM,61.0,59.0,93,29.81,10.0,SSE,8.1,-,N/A,,Scattered Clouds,160,2013-05-17 04:53:00